Weather History for Sao Paulo, Brazil

Change the Weather History Date:

Thursday, February 7, 2013

  Actual Average Record
Temperature  
Mean Temperature 68 °F -  
Max Temperature 70 °F 81 °F 94 °F (2014)
Min Temperature 65 °F 66 °F 60 °F (2005)
Cooling Degree Days 2    
Growing Degree Days 18 (Base 50)    
Moisture  
Dew Point 62 °F    
Average Humidity 79    
Maximum Humidity 88    
Minimum Humidity 66    
Precipitation  
Precipitation 0.51 in - - ()
Sea Level Pressure  
Sea Level Pressure 30.08 in    
Wind  
Wind Speed 6 mph ()    
Max Wind Speed 10 mph    
Max Gust Speed -    
Visibility 5.8 miles    
Events Rain    
Averages and records for this station are not official NWS values.
T = Trace of Precipitation, MM = Missing Value Source: Averaged Metar Reports

Daily Weather History Graph

Daily Weather History Graph

Search for Another Location

Airport:

Trip Planner

Search our weather history database for the weather conditions in past years. The results will help you decide how hot, cold, wet, or windy it might be!

Date:

Astronomy

Feb. 07, 2013 Rise Set
Actual Time 6:49 AM BRST 7:51 PM BRST
Civil Twilight 6:25 AM BRST 8:15 PM BRST
Nautical Twilight 5:57 AM BRST 8:43 PM BRST
Astronomical Twilight 5:29 AM BRST 9:12 PM BRST
Moon 3:52 AM BRST (2/7) 5:33 PM BRST (2/7)
Length of Visible Light 13h 49m
Length of Day
13h 01m
Waning Crescent, 10% of the Moon is Illuminated
Feb 7
Waning Crescent
Feb 10
New
Feb 17
First Quarter
Feb 25
Full
Mar 4
Last Quarter

Hourly Weather History & Observations

Time (BRST) Temp. Dew Point Humidity Pressure Visibility Wind Dir Wind Speed Gust Speed Precip Events Conditions
12:00 AM 68.0 °F 62.6 °F 83% 30.09 in 6.2 mi East 8.1 mph - N/A   Mostly Cloudy
1:00 AM 68.0 °F 60.8 °F 78% 30.09 in 6.2 mi East 5.8 mph - N/A   Mostly Cloudy
2:00 AM 66.2 °F 62.6 °F 88% 30.06 in 6.2 mi East 10.4 mph - N/A   Overcast
3:00 AM 66.2 °F 60.8 °F 83% 30.04 in 6.2 mi East 9.2 mph - N/A   Mostly Cloudy
4:00 AM 66 °F 61 °F 79%  in 7 mi SSE 9.2 mph - -   Mist
4:00 AM 66.2 °F 60.8 °F 83% 30.06 in 6.2 mi SSE 9.2 mph - N/A   Mostly Cloudy
5:00 AM 66.2 °F 60.8 °F 83% 30.06 in 3.7 mi ESE 3.5 mph - N/A   Mostly Cloudy
6:00 AM 66.2 °F 60.8 °F 83% 30.06 in 6.2 mi East 4.6 mph - N/A   Scattered Clouds
7:00 AM 66.2 °F 59.0 °F 78% 30.06 in 6.2 mi NNE 4.6 mph - N/A   Mostly Cloudy
8:00 AM 66.2 °F 60.8 °F 83% 30.09 in 6.2 mi East 4.6 mph - N/A   Mostly Cloudy
9:00 AM 68.0 °F 60.8 °F 78% 30.09 in 6.2 mi East 4.6 mph - N/A   Mostly Cloudy
10:00 AM 69 °F 60 °F 66%  in 7 mi ENE 4.6 mph - -   Haze
10:00 AM 69.8 °F 60.8 °F 73% 30.12 in - ENE 4.6 mph - N/A   Clear
10:10 AM 68.0 °F 60.8 °F 78% 30.12 in - NE 5.8 mph - N/A Rain Light Rain
11:00 AM 68.0 °F 60.8 °F 78% 30.12 in 2.5 mi NNW 4.6 mph - N/A Rain Light Rain
11:33 AM 68.0 °F 60.8 °F 78% 30.12 in - North 3.5 mph - N/A Rain Light Rain
12:00 PM 66.2 °F 62.6 °F 88% 3.01 in 3.1 mi NNW 2.3 mph - N/A Rain Rain
12:32 PM 66.2 °F 62.6 °F 88% 30.09 in 5.6 mi NNE 4.6 mph - N/A Rain Light Rain
1:00 PM 68.0 °F 62.6 °F 83% 30.12 in 3.7 mi North 3.5 mph - N/A Rain Light Rain
1:20 PM - - N/A% 30.12 in 1.2 mi North 5.8 mph - N/A Rain Heavy Rain
2:00 PM 68.0 °F 62.6 °F 83% 30.09 in 5.0 mi NNE 5.8 mph - N/A Rain Light Rain
3:00 PM 68.0 °F 64.4 °F 88% 30.09 in 6.2 mi North 5.8 mph - N/A Rain Light Rain
4:00 PM 69 °F 62 °F 72%  in 6 mi NNW 9.2 mph - - Rain Light Rain
4:00 PM 69.8 °F 62.6 °F 78% 30.06 in 6.2 mi NNW 9.2 mph - N/A   Mostly Cloudy
5:00 PM 69.8 °F 62.6 °F 78% 30.06 in 6.2 mi NW 4.6 mph - N/A Rain Light Rain
6:00 PM 71.6 °F 62.6 °F 73% 30.04 in 6.2 mi NNE 3.5 mph - N/A   Mostly Cloudy
7:00 PM 71.6 °F 62.6 °F 73% 30.04 in 6.2 mi ENE 4.6 mph - N/A   Overcast
8:00 PM 69.8 °F 59.0 °F 68% 30.04 in 6.2 mi East 2.3 mph - N/A   Overcast
9:00 PM 69.8 °F 60.8 °F 73% 30.06 in 6.2 mi SSE 6.9 mph - N/A   Mostly Cloudy
10:00 PM 69 °F 63 °F 76%  in 12 mi East 5.8 mph - -   Scattered Clouds
10:00 PM 69.8 °F 62.6 °F 78% 30.06 in 6.2 mi East 5.8 mph - N/A   Mostly Cloudy
11:00 PM 68.0 °F 62.6 °F 83% 30.09 in 5.6 mi East 6.9 mph - N/A   Mostly Cloudy